Showing default

FLOCK 4BE 22, 60494

Orbit data source: Space-Track

FLOCK 4BE 22, 60494 is a payload satellite owned by Planet (US) in SSO that was launched on Fri, 16 Aug 2024 UTC via an FALCON 9 launch vehicle from the Air Force Western Test Range (AFWTR). Payload-class satellites include a variety of spacecraft equipped with specific instruments for various scientific and technological missions. These include communications satellites like Starlink; space stations such as the ISS; scientific satellites like the Hubble; Earth observation satellites from companies like Planet Labs, Umbra, and HawkEye 360; GPS; miniature CubeSats for education and research; and military/defense satellites.

Loading next visibility...
Identifier
60494, 2024-149AC
Orbit
SSO
Country
Flag of USUS
Related business
Manufacturer
Planet
Mission
Operational Commercial Imaging
Bus & Motor
CUBESAT 3U, Unknown motor
Mass
5.7 kg wet, 5.7 kg dry
Launch date (UTC)
2024-08-16 (2 years ago)
Launch vehicle
FALCON 9
Launch site
Air Force Western Test Range (AFWTR)
Object type
Payload
Rocket body
Debris
Shape & HBR
Box + 2 Pan, 1.0 m
Radar Cross Section
0.072 m², Medium (>0.1 m² and < 1m²)

Expand to show TLE details & history
Last TLE update: 2 days ago

TLE from 2 days ago
0 FLOCK 4BE 22
1 60494U 24149AC  26173.20154637  .00011565  00000-0  27974-3 0  9990
2 60494  97.3728 256.8106 0002775 228.7310 131.3698 15.41289835103071
Epoch: 2026-06-22T04:50Z
TLE epoch observation values (Epoch: 2026-06-22T04:50:13.606Z)
Latitude
-0.00002°
Longitude
-86.13695°
Altitude
446.673 km
Speed
7.643 km/s
True Right ascension
17h 07m 14s
True Declination
0° 00' 00"
Sunlit
Object was in full shadow at epoch
Visualization orbit readout
Latitude
Unknown
Longitude
Unknown
Altitude
Unknown
Speed
Unknown
Apparent Right ascension
Unknown
Apparent Declination
Unknown
Sunlit
N/A
Visualization observer readout
Local Sidereal Time
09:31:00
Azimuth
Unknown
Elevation
Unknown
Doppler factor
Unknown
Orbital elements
Apogee altitude
441.129 km
Perigee altitude
437.346 km
Semi-major axis
6,817.375 km
Eccentricity
0.00028
Inclination
97.3728°
RAAN
256.8106°
Arg. of periapsis
228.731°
True anomaly
131.39366°
Mean anomaly
131.3698°
Eccentric anomaly
131.38173°
Mean motion
3.85583 °/min
Orbital period
93.37 mins
BSTAR
0.00027974
Loading maneuver chart data...
Computing Atmospheric mass density...
Loading historical data...
Loading historical data...
Loading historical data...
Loading historical data...
Loading historical data...
Loading historical data...
Loading historical data...

Documentation

Showing up to 5 results
|